Dewpoint
0 0 2 3 1 -1 -1 2 1 -2 -2 1 4 3 -0 -1 -1 0 0 -0 -0 1 1 2 2 2 2 1 -0 0 -0 1 0 -3 -1 -0 -0 0 -0 2 1 1 4 2
-1 -0 3 0 4 1 5 1 3 0 1 8 8 2 1 0 0 -0 0 2 1 1 2 3 2 2 2 2 0 2 0 2 1 -2 1 0 0 -0 -1 0 2 3 7 3
-3 -1 1 2 3 4 4 2 7 3 4 2 1 2 1 2 1 1 1 1 1 1 2 1 3 3 2 3 2 1 1 -0 -0 1 -3 -4 -3 -4 -4 -1 4 3 2 -0
-5 -3 -1 3 3 4 2 4 4 4 5 4 1 1 1 1 1 0 0 1 1 2 3 2 2 1 2 1 1 1 1 2 1 -0 -3 -4 -3 -2 -3 -3 -2 2 1 -0
-8 -5 -2 -1 2 0 4 2 3 3 4 2 2 2 1 0 0 -0 0 1 -0 -1 2 -3 -0 -2 -3 -2 1 0 1 4 3 2 -2 -3 -1 -3 -3 -3 -2 -2 -2 -1
-8 -7 -5 -2 -0 0 4 1 3 3 3 3 3 3 1 -0 1 2 -1 -1 -2 2 -1 0 1 1 1 -0 1 2 3 4 4 6 3 3 7 2 -3 -3 -3 -1 2 -1
-7 -8 -7 -3 -2 -1 2 3 4 5 6 4 3 0 -0 0 -0 1 -0 -1 2 3 2 2 2 2 2 2 2 2 6 5 6 8 6 9 1 -3 -3 -2 -2 -3 -3 -3
-6 -8 -7 -6 -1 -1 -1 -0 3 3 10 3 2 1 0 1 1 1 2 3 3 3 2 4 6 4 5 4 1 1 2 6 7 7 4 2 0 -1 -1 -0 0 -2 0 1
-6 -7 -7 -6 -3 -1 0 -0 -2 3 3 7 1 2 2 4 4 4 5 5 5 5 5 6 8 5 1 2 2 1 3 4 6 7 7 6 2 -1 -1 -1 3 2 2 2
-5 -6 -7 -6 -4 0 1 1 -2 3 5 3 2 3 3 2 2 4 4 5 5 5 8 8 9 5 1 2 6 5 6 5 7 5 7 4 -1 -1 -1 4 5 3 3 3
-4 -5 -6 -5 -4 -0 2 2 -0 2 3 4 3 3 4 3 2 7 5 5 5 7 7 8 8 8 4 3 -1 3 4 7 6 5 7 6 -1 -1 5 2 2 3 3 3
-2 -3 -4 -5 -4 -1 1 5 1 -1 4 5 0 0 1 2 2 2 5 3 5 4 7 7 7 6 6 6 5 -2 2 2 3 4 3 -2 0 1 3 2 3 3 4 3
0 -1 -2 -3 -3 -1 1 2 1 1 2 5 4 4 -0 -1 -0 3 4 5 3 5 5 6 6 5 5 6 6 5 0 -2 3 3 0 -1 1 2 4 4 4 3 3 2
2 1 0 -0 -1 -0 1 3 2 3 4 5 6 4 3 0 -0 0 4 3 3 5 5 5 4 7 3 6 3 3 2 0 2 3 1 0 1 3 4 3 3 3 -0 -3
3 3 2 2 3 2 2 3 3 2 5 6 7 4 3 3 2 2 2 2 4 6 5 4 5 5 5 5 5 5 1 1 5 5 2 3 3 4 3 2 2 -1 -3 -5
4 4 4 3 4 4 5 6 4 3 2 3 8 6 4 4 4 6 6 5 5 5 6 5 4 4 4 5 6 1 0 0 0 2 4 4 3 2 3 -0 -2 -3 -5 -6
4 5 5 5 5 5 7 6 6 4 4 4 6 7 4 4 6 6 6 7 6 6 6 6 6 5 4 6 6 0 0 2 3 3 3 2 2 2 -1 -2 -4 -5 -6 -9
4 4 5 5 5 6 6 5 3 5 6 5 6 6 5 4 5 6 4 5 6 6 5 5 5 4 5 6 2 1 2 2 2 2 2 2 2 -2 -4 -5 -7 -10 -11 -11
4 4 5 5 5 5 5 5 5 5 5 6 3 5 5 4 3 4 3 4 5 4 4 4 5 5 6 4 2 2 1 1 1 2 0 -1 -3 -5 -8 -10 -11 -10 -10 -11
5 5 5 5 5 5 4 5 5 5 4 5 4 4 5 3 2 2 3 3 4 4 3 2 2 3 3 2 2 2 1 1 1 -1 -2 -4 -5 -10 -10 -10 -9 -9 -10 -8
4 4 5 4 5 5 5 5 4 4 3 3 3 4 4 3 4 3 2 3 2 4 3 3 4 3 1 1 1 1 0 -0 -2 -3 -5 -9 -10 -10 -9 -8 -8 -7 -7 -6
3 3 3 3 3 3 4 2 1 2 4 1 1 2 2 2 3 1 0 2 1 5 0 3 2 -0 -0 0 0 -0 -1 -3 -6 -9 -10 -10 -9 -8 -7 -6 -7 -7 -8 -10
1 1 1 0 -0 2 3 3 3 2 0 0 0 0 1 1 1 0 1 3 4 -0 1 1 -0 -2 -1 -0 -1 -2 -4 -6 -9 -10 -10 -10 -9 -12 -12 -11 -10 -9 -9 -10
0 -0 1 1 2 2 2 2 2 0 1 1 1 -0 0 -0 0 -0 3 1 -0 2 1 2 -2 -2 -2 -2 -2 -3 -5 -8 -11 -12 -14 -17 -17 -13 -10 -9 -9 -8 -9 -11
-0 0 2 1 -1 -1 -1 -1 -0 -0 0 1 1 0 1 1 1 1 -0 0 1 0 0 -1 -3 -3 -3 -4 -4 -6 -8 -10 -10 -10 -10 -16 -14 -10 -8 -8 -8 -8 -8 -9
-2 -1 -0 -1 -0 -1 -1 -1 -1 -0 0 1 0 1 2 1 1 1 1 2 -0 -1 -1 -2 -4 -5 -5 -5 -7 -8 -8 -10 -12 -15 -15 -13 -10 -8 -8 -8 -8 -8 -9 -10
-2 -2 -1 -1 -1 -0 -1 -1 -0 -0 0 1 0 1 1 -1 0 0 -2 -1 -1 -2 -2 -5 -5 -6 -6 -10 -9 -9 -9 -10 -11 -10 -11 -10 -9 -8 -7 -8 -9 -5 -7 -8
Wind_Speed
5 5 7 12 15 18 17 10 5 11 13 9 6 5 6 4 8 4 3 2 4 5 4 3 3 4 5 3 5 4 6 2 2 4 3 3 4 4 4 2 2 3 3 7
6 6 7 13 16 18 10 5 6 11 14 4 3 5 6 3 7 3 4 3 1 3 5 3 6 5 5 4 5 7 6 1 3 5 6 4 4 1 2 1 2 9 6 5
6 6 7 12 15 16 8 6 3 6 9 4 9 9 9 7 3 4 4 7 7 8 6 4 7 7 4 2 4 4 2 1 3 5 9 8 8 9 9 10 7 10 11 16
7 6 6 9 12 13 9 2 2 5 7 7 10 10 10 11 6 3 7 5 4 7 4 6 4 6 6 3 2 1 3 2 5 10 12 11 12 13 13 15 14 13 15 16
7 6 5 7 9 11 5 5 4 3 3 8 10 5 10 13 5 9 7 7 8 5 6 2 6 4 3 2 4 1 2 1 4 4 7 10 14 16 18 16 10 13 13 15
8 7 6 6 6 8 3 4 9 7 4 9 8 7 9 10 11 2 5 12 8 9 9 10 9 8 5 4 2 2 2 1 4 4 11 13 6 3 1 4 7 7 10 10
8 7 6 6 6 6 5 7 6 5 4 8 8 8 10 11 7 8 11 9 9 6 10 11 10 10 6 3 3 1 4 1 2 3 7 3 5 9 13 10 9 9 8 7
9 8 7 6 7 7 6 10 5 4 3 7 6 11 14 11 12 15 12 6 8 11 3 2 2 1 3 1 4 3 1 3 2 2 5 14 10 5 6 8 13 10 6 10
11 9 8 7 7 7 7 8 6 3 13 5 11 12 16 11 8 7 5 7 7 4 3 2 2 2 0 5 6 5 4 2 3 3 3 4 2 7 5 7 9 7 7 13
12 10 9 8 8 8 8 7 7 4 6 6 11 9 12 8 11 6 8 8 4 3 2 1 3 3 2 3 3 4 2 2 5 6 5 8 8 3 5 4 3 8 12 8
12 11 10 9 9 9 9 8 8 6 4 7 7 7 9 8 11 5 11 7 3 3 2 3 3 1 4 3 2 4 6 5 4 3 3 6 4 4 3 10 15 7 7 7
13 12 10 10 10 10 9 4 7 7 6 6 11 11 12 10 7 7 14 1 7 9 3 3 3 2 0 1 3 4 4 6 3 8 6 12 9 12 14 7 5 9 6 8
13 12 11 10 11 11 12 9 9 7 5 4 6 5 11 11 12 11 6 5 6 8 4 7 3 3 5 5 6 7 6 13 7 8 7 17 13 17 3 3 2 4 10 11
13 12 11 11 10 10 11 11 13 9 5 5 5 9 11 13 12 12 9 9 12 10 6 4 3 3 11 5 7 7 10 9 10 14 20 20 15 1 1 2 6 4 6 9
13 12 11 10 10 10 10 11 12 13 5 4 3 8 12 15 15 11 10 9 10 6 4 3 3 4 3 2 2 8 15 14 10 10 11 8 8 3 8 7 4 4 7 10
14 12 11 11 11 10 7 4 10 13 9 3 3 4 6 11 12 9 9 10 8 9 6 5 5 8 8 5 4 8 10 12 16 15 4 6 7 9 5 3 2 5 8 13
16 13 11 12 13 13 8 4 6 16 11 4 2 3 3 11 8 7 9 8 7 8 5 7 6 9 9 3 7 10 13 12 6 3 5 3 5 4 4 2 4 8 13 17
18 16 14 12 12 13 12 6 5 13 8 5 2 2 2 9 6 5 7 5 5 6 5 3 4 5 2 4 11 15 10 7 4 5 5 0 5 4 3 4 8 13 17 20
23 17 15 13 15 12 16 13 6 8 6 3 4 6 4 8 4 5 5 4 2 2 3 4 4 3 6 9 12 11 10 9 9 5 7 8 5 3 5 8 12 16 19 19
26 24 15 9 10 10 13 10 5 6 7 6 6 7 4 8 6 4 5 3 3 3 2 3 2 3 12 8 7 8 10 10 9 11 9 5 3 5 9 11 14 16 18 19
23 14 7 11 26 19 12 7 7 6 3 7 8 11 5 6 4 4 4 2 2 3 3 3 3 3 12 14 10 9 11 12 10 6 5 2 4 8 11 13 14 15 17 19
11 9 13 18 5 5 4 2 4 4 5 6 7 5 6 6 5 5 4 3 2 3 7 2 3 3 8 12 14 13 13 11 8 4 2 5 8 10 12 14 16 17 22 25
17 4 4 2 2 2 6 9 3 3 7 9 7 4 5 5 4 4 3 5 2 0 2 3 4 8 10 13 15 13 12 10 7 3 6 9 13 16 18 20 20 23 24 24
2 3 3 2 2 2 2 3 3 4 7 15 15 6 3 3 3 2 3 2 2 3 3 4 1 7 11 12 11 12 10 7 6 10 14 19 20 21 19 19 22 24 24 25
2 2 2 2 2 5 6 6 6 8 14 11 8 6 3 3 2 1 3 3 3 4 2 3 1 8 11 10 9 10 10 8 12 14 18 23 22 21 22 23 24 23 24 27
3 3 3 3 4 3 4 6 8 7 10 8 6 3 2 2 1 3 3 2 4 1 2 2 7 8 7 7 8 10 10 14 21 23 23 22 21 20 24 24 23 24 25 28
3 2 4 5 4 4 3 4 5 8 7 1 2 2 2 3 2 2 2 3 2 2 5 6 6 5 2 6 11 15 19 24 21 20 19 20 21 23 24 24 21 19 26 28
Wind_Direction
151 120 150 162 156 153 149 173 190 173 163 183 204 196 154 130 145 151 113 76 110 157 144 129 103 130 51 59 358 32 37 7 284 24 67 336 330 351 331 302 309 238 299 284
158 125 133 167 165 161 163 188 111 164 172 161 193 158 130 131 167 148 162 131 161 177 143 122 124 117 92 57 10 22 13 74 292 187 162 174 282 39 314 5 290 252 255 265
171 143 123 164 178 177 169 170 119 151 204 286 192 181 171 140 101 108 103 120 144 137 146 121 152 126 134 89 46 42 305 345 305 306 320 321 292 273 267 253 255 271 274 287
182 165 137 142 175 185 177 201 147 155 181 220 202 184 182 165 150 136 166 160 185 156 147 135 144 139 138 141 125 131 342 269 332 302 303 306 297 285 272 263 260 257 276 285
184 185 167 144 150 172 188 186 158 155 146 172 178 154 199 182 137 161 166 184 155 163 151 214 169 158 202 144 166 132 41 96 333 281 300 317 304 287 274 263 275 282 288 296
190 192 184 171 160 164 163 167 154 159 168 178 174 192 170 175 147 52 191 148 144 96 77 75 66 68 74 95 166 149 352 345 353 280 338 321 282 267 322 283 277 256 268 289
196 196 194 183 180 186 173 175 151 131 157 186 190 184 171 160 175 143 127 144 116 109 113 97 74 74 72 120 76 348 136 97 56 299 312 309 40 299 295 276 286 280 288 350
207 200 197 191 181 177 176 171 143 141 118 174 161 164 149 130 132 140 122 77 113 139 114 105 60 109 60 95 49 89 224 134 136 269 295 289 298 53 6 336 301 322 358 7
207 208 199 193 185 177 167 167 162 131 125 217 166 157 165 151 138 135 112 108 130 131 89 104 168 203 292 145 139 62 72 105 242 166 271 271 45 26 339 299 266 52 356 341
205 209 208 194 188 181 175 167 153 121 107 146 165 163 182 176 180 141 147 152 142 169 96 122 187 204 334 205 190 195 130 191 227 227 246 267 302 0 299 258 0 333 337 324
202 204 206 200 190 186 180 172 166 143 114 149 158 147 160 167 185 160 139 141 152 131 118 166 204 190 202 215 259 179 190 187 202 210 253 272 168 219 262 330 316 332 311 283
201 204 206 204 196 189 188 179 174 164 160 161 179 179 174 177 189 174 171 193 154 177 138 170 157 184 87 234 238 177 251 208 240 192 248 298 249 259 274 272 322 316 269 293
201 202 205 207 205 195 191 187 181 169 130 128 161 178 191 190 193 178 172 197 175 178 151 152 161 192 176 178 226 261 274 260 233 277 260 295 302 307 74 72 307 255 284 278
202 202 204 205 207 204 194 187 189 180 161 142 186 206 192 196 188 186 181 189 188 162 159 124 147 187 204 212 257 257 250 279 260 266 287 299 283 145 106 270 281 270 291 297
205 204 205 205 202 201 197 198 199 197 181 151 150 187 207 200 198 199 207 205 182 174 148 128 195 221 216 167 300 256 253 260 257 263 298 272 301 329 299 278 246 285 301 304
205 206 204 201 200 191 166 208 218 205 190 167 144 209 197 203 200 193 189 191 204 211 190 199 234 218 210 187 219 258 270 277 277 291 282 233 244 292 253 281 279 299 307 312
205 206 210 208 199 186 200 204 208 200 185 176 114 202 218 183 166 180 188 202 210 211 222 209 202 209 213 191 239 254 267 276 263 244 176 299 219 202 215 266 296 308 309 310
202 203 212 219 218 209 208 196 185 185 182 186 164 170 185 181 187 191 190 194 199 218 242 154 215 232 219 249 248 257 245 193 164 146 158 200 201 198 241 290 313 314 312 313
204 207 216 216 213 214 213 208 205 183 197 212 164 165 190 170 156 157 151 166 194 231 235 203 211 167 218 239 251 209 196 197 187 196 161 166 195 256 308 318 314 311 312 315
201 202 189 201 200 186 192 198 206 218 215 216 205 170 155 181 164 149 134 170 218 215 198 175 222 251 248 245 226 207 199 197 185 169 176 199 252 301 308 307 307 309 311 315
193 193 209 170 153 157 173 171 181 184 252 209 185 182 145 167 154 160 192 161 162 228 158 224 226 248 218 202 183 169 164 161 165 175 163 201 283 297 301 302 306 310 309 311
172 149 137 150 172 146 158 176 162 201 207 182 156 141 159 135 140 115 178 179 188 230 149 220 247 199 160 173 169 161 159 161 160 164 231 282 294 299 299 301 305 307 307 311
146 147 131 124 174 213 186 184 188 187 160 159 147 112 123 126 144 120 169 188 185 304 198 231 234 135 166 166 165 164 164 169 180 236 283 294 301 300 300 300 305 309 308 313
85 99 103 327 143 15 350 359 74 87 126 139 130 98 118 118 100 132 177 69 198 215 235 228 180 173 166 166 172 177 180 207 253 293 302 306 307 304 299 298 305 305 306 313
72 37 78 61 68 58 58 39 75 94 131 119 97 77 79 73 108 41 116 161 224 232 250 40 119 160 162 165 167 178 203 252 289 299 300 302 304 299 297 304 306 307 306 309
58 63 107 126 87 66 64 90 98 123 137 104 73 90 101 101 75 188 203 207 222 135 102 170 155 151 157 172 198 229 255 285 299 299 297 297 297 297 301 305 306 306 305 309
119 114 135 141 109 138 137 153 163 168 156 83 118 157 85 116 199 217 213 230 18 134 150 141 131 143 192 268 258 255 272 292 297 297 298 297 298 300 301 303 309 301 307 311
Height
1499 1499 1499 1500 1502 1505 1509 1511 1507 1512 1515 1517 1514 1515 1516 1520 1521 1523 1522 1521 1520 1522 1525 1528 1530 1533 1536 1543 1542 1539 1544 1541 1544 1535 1539 1540 1537 1536 1538 1551 1551 1549 1556 1547
1499 1499 1499 1500 1503 1505 1509 1507 1510 1513 1515 1517 1518 1519 1521 1520 1521 1522 1522 1525 1525 1526 1527 1535 1533 1537 1545 1545 1543 1544 1544 1543 1544 1534 1540 1540 1539 1538 1542 1548 1556 1554 1556 1543
1499 1499 1499 1500 1503 1505 1507 1507 1511 1515 1516 1513 1511 1514 1516 1521 1524 1526 1525 1527 1527 1528 1531 1530 1535 1539 1545 1548 1547 1550 1550 1543 1547 1549 1542 1539 1542 1539 1538 1541 1552 1547 1541 1532
1499 1499 1500 1501 1502 1504 1507 1506 1507 1509 1512 1513 1511 1513 1514 1517 1522 1525 1526 1527 1526 1529 1535 1533 1536 1537 1545 1549 1551 1550 1549 1551 1548 1545 1542 1540 1540 1539 1536 1535 1535 1542 1537 1532
1498 1500 1501 1501 1502 1504 1506 1506 1508 1510 1511 1511 1512 1516 1514 1515 1520 1522 1524 1525 1526 1528 1535 1533 1537 1537 1541 1542 1549 1549 1551 1553 1557 1552 1541 1540 1541 1535 1530 1530 1531 1530 1528 1530
1498 1500 1501 1502 1502 1504 1506 1505 1506 1509 1514 1512 1513 1514 1514 1516 1522 1527 1523 1526 1528 1534 1536 1539 1541 1543 1545 1546 1547 1550 1553 1555 1557 1557 1550 1551 1549 1534 1528 1528 1530 1533 1535 1530
1498 1499 1501 1502 1502 1503 1504 1505 1508 1509 1514 1513 1511 1514 1516 1518 1521 1524 1527 1530 1534 1542 1543 1544 1546 1548 1549 1550 1552 1553 1559 1559 1567 1567 1563 1557 1533 1529 1529 1530 1531 1528 1526 1528
1498 1499 1500 1502 1502 1503 1504 1505 1508 1508 1515 1511 1514 1515 1516 1523 1525 1528 1532 1537 1539 1541 1543 1545 1552 1553 1561 1558 1556 1555 1555 1560 1569 1570 1558 1545 1532 1533 1533 1534 1534 1529 1532 1536
1497 1499 1500 1502 1502 1504 1505 1506 1506 1508 1510 1516 1513 1516 1520 1523 1527 1533 1537 1539 1541 1543 1546 1550 1558 1548 1543 1546 1554 1560 1560 1562 1562 1568 1569 1557 1533 1532 1538 1536 1535 1536 1540 1541
1496 1497 1499 1501 1502 1504 1505 1506 1507 1509 1510 1514 1516 1518 1519 1521 1525 1528 1535 1539 1542 1543 1549 1552 1554 1544 1544 1544 1557 1565 1566 1568 1565 1564 1565 1549 1534 1538 1539 1542 1540 1540 1542 1543
1494 1497 1499 1501 1502 1504 1505 1506 1507 1509 1510 1514 1515 1517 1520 1523 1524 1530 1534 1538 1541 1544 1552 1554 1550 1555 1546 1546 1539 1548 1553 1559 1565 1562 1562 1554 1537 1539 1545 1537 1538 1540 1542 1542
1492 1495 1497 1500 1502 1503 1505 1508 1508 1509 1511 1514 1514 1516 1518 1521 1523 1526 1531 1531 1532 1535 1540 1548 1550 1555 1555 1549 1546 1536 1543 1541 1543 1545 1537 1532 1535 1535 1536 1536 1540 1541 1541 1541
1491 1494 1497 1499 1501 1503 1504 1506 1508 1510 1512 1515 1516 1518 1518 1520 1522 1524 1528 1531 1531 1533 1534 1541 1546 1552 1547 1552 1543 1536 1534 1532 1535 1541 1533 1533 1533 1535 1535 1536 1537 1537 1538 1537
1490 1493 1496 1499 1501 1502 1504 1505 1507 1510 1512 1513 1516 1515 1517 1518 1520 1522 1524 1526 1528 1531 1534 1536 1541 1543 1538 1542 1534 1531 1532 1531 1529 1528 1527 1527 1529 1532 1533 1534 1535 1535 1535 1535
1490 1492 1495 1497 1500 1502 1503 1505 1506 1508 1512 1511 1514 1514 1515 1517 1519 1521 1523 1525 1527 1530 1532 1535 1537 1536 1536 1537 1539 1530 1527 1524 1526 1524 1524 1527 1530 1532 1533 1532 1532 1532 1533 1533
1489 1492 1494 1496 1499 1501 1504 1507 1507 1507 1508 1511 1513 1514 1513 1515 1517 1520 1522 1524 1526 1528 1530 1531 1529 1529 1532 1536 1531 1522 1522 1522 1521 1521 1524 1526 1526 1529 1531 1531 1531 1531 1532 1531
1487 1490 1493 1495 1498 1500 1503 1504 1503 1504 1507 1510 1512 1511 1511 1513 1518 1520 1521 1521 1524 1526 1527 1526 1526 1526 1528 1526 1520 1516 1517 1518 1519 1520 1522 1524 1525 1527 1529 1529 1529 1529 1529 1527
1485 1489 1492 1494 1497 1499 1501 1501 1501 1503 1506 1508 1510 1510 1513 1512 1515 1517 1518 1520 1521 1521 1520 1522 1522 1522 1522 1517 1510 1510 1512 1516 1517 1518 1520 1523 1526 1526 1527 1527 1526 1526 1525 1523
1483 1487 1491 1493 1494 1496 1498 1501 1502 1504 1507 1504 1505 1506 1509 1510 1512 1514 1517 1518 1520 1520 1518 1520 1521 1517 1512 1506 1505 1508 1512 1514 1515 1517 1519 1522 1524 1525 1524 1524 1524 1523 1522 1519
1480 1485 1486 1486 1487 1491 1498 1501 1502 1502 1501 1500 1500 1501 1504 1508 1511 1513 1517 1516 1517 1517 1517 1517 1516 1507 1504 1504 1506 1507 1510 1512 1514 1516 1518 1521 1522 1522 1523 1522 1521 1519 1517 1514
1471 1475 1478 1478 1482 1489 1492 1494 1497 1497 1496 1493 1493 1495 1499 1504 1506 1510 1513 1513 1515 1511 1511 1513 1505 1498 1496 1500 1503 1505 1508 1511 1514 1516 1518 1519 1520 1520 1519 1518 1516 1513 1511 1509
1470 1473 1476 1479 1478 1480 1485 1486 1491 1488 1486 1488 1489 1493 1496 1500 1503 1506 1511 1512 1513 1504 1509 1510 1499 1490 1495 1498 1501 1504 1507 1511 1513 1515 1517 1518 1517 1516 1514 1512 1510 1509 1506 1503
1471 1474 1475 1476 1479 1478 1476 1476 1478 1479 1479 1482 1486 1493 1495 1499 1501 1504 1506 1505 1504 1510 1510 1499 1489 1490 1495 1498 1501 1504 1507 1509 1511 1513 1514 1514 1513 1511 1509 1507 1506 1503 1500 1498
1473 1473 1475 1476 1475 1477 1475 1474 1473 1477 1479 1482 1486 1490 1493 1496 1499 1502 1499 1507 1506 1504 1501 1494 1490 1493 1496 1499 1502 1505 1507 1508 1509 1510 1510 1508 1507 1505 1503 1502 1500 1497 1494 1491
1476 1475 1475 1478 1480 1480 1480 1480 1478 1480 1483 1484 1486 1491 1494 1497 1500 1501 1503 1505 1499 1494 1488 1491 1494 1496 1498 1500 1503 1505 1506 1507 1507 1507 1505 1503 1502 1500 1497 1495 1493 1490 1487 1484
1478 1479 1480 1481 1482 1483 1484 1484 1484 1485 1487 1487 1489 1492 1494 1497 1498 1500 1496 1495 1491 1489 1494 1497 1498 1499 1501 1502 1504 1505 1506 1505 1503 1501 1499 1497 1496 1494 1491 1488 1486 1484 1482 1478
1480 1481 1481 1482 1482 1484 1486 1486 1488 1489 1491 1491 1492 1494 1494 1501 1497 1497 1495 1494 1494 1496 1498 1499 1499 1500 1502 1502 1503 1502 1502 1500 1498 1496 1494 1492 1491 1488 1485 1482 1480 1478 1474 1471